• In Belarus
  • List of Countries
  • For 7 days
  • Water Temperature
  • Satellite Maps
  • Weather Map
  • Weather Widgets
  • user-avatar
    Login

    Hourly Weather Aveiro

    Today, 11 December, Tuesday

    Time Temperature Precipitation Wind Pressure Humidity
    00:00 +13°C° 0 mm 2 mps 766 mmHg 63%
    01:00 +13°C° 0 mm 2 mps 766 mmHg 63%
    02:00 +13°C° 0 mm 2 mps 766 mmHg 63%
    03:00 +13°C° 0 mm 2 mps 765 mmHg 63%
    04:00 +11°C° 0 mm 3 mps 765 mmHg 63%
    05:00 +11°C° 0 mm 3 mps 765 mmHg 62%
    06:00 +12°C° 0 mm 3 mps 765 mmHg 62%
    07:00 +13°C° 0 mm 2 mps 766 mmHg 61%
    08:00 +13°C° 0 mm 2 mps 766 mmHg 61%
    09:00 +15°C° 0 mm 2 mps 766 mmHg 57%
    10:00 +17°C° 0 mm 2 mps 766 mmHg 54%
    11:00 +18°C° 0 mm 2 mps 766 mmHg 50%
    12:00 +18°C° 0 mm 2 mps 766 mmHg 54%
    13:00 +18°C° 0 mm 2 mps 765 mmHg 57%
    14:00 +18°C° 0 mm 2 mps 765 mmHg 61%
    15:00 +17°C° 0 mm 2 mps 766 mmHg 71%
    16:00 +15°C° 0 mm 2 mps 766 mmHg 80%
    17:00 +13°C° 0 mm 2 mps 766 mmHg 90%
    18:00 +13°C° 0 mm 2 mps 766 mmHg 91%
    19:00 +12°C° 0 mm 2 mps 767 mmHg 93%
    20:00 +12°C° 0 mm 2 mps 767 mmHg 94%
    21:00 +12°C° 0 mm 2 mps 767 mmHg 95%
    22:00 +12°C° 0 mm 2 mps 767 mmHg 95%
    23:00 +12°C° 0 mm 2 mps 767 mmHg 96%

    Tomorrow, 12 December, Wednesday

    Time Temperature Precipitation Wind Pressure Humidity
    00:00 +12°C° 0 mm 2 mps 767 mmHg 96%
    01:00 +12°C° 0 mm 2 mps 767 mmHg 95%
    02:00 +12°C° 0 mm 2 mps 767 mmHg 95%
    03:00 +12°C° 0 mm 2 mps 767 mmHg 95%
    04:00 +12°C° 0 mm 2 mps 766 mmHg 95%
    05:00 +13°C° 0 mm 1 mps 766 mmHg 95%
    06:00 +13°C° 0 mm 1 mps 766 mmHg 94%
    07:00 +13°C° 0 mm 1 mps 766 mmHg 93%
    08:00 +13°C° 0 mm 1 mps 766 mmHg 92%
    09:00 +14°C° 0 mm 1 mps 766 mmHg 86%
    10:00 +15°C° 0 mm 2 mps 765 mmHg 79%
    11:00 +14°C° 0 mm 3 mps 765 mmHg 73%
    12:00 +14°C° 0 mm 3 mps 764 mmHg 74%
    13:00 +14°C° 0 mm 3 mps 764 mmHg 74%
    14:00 +14°C° 0 mm 4 mps 763 mmHg 75%
    15:00 +13°C° 0.1 mm 4 mps 763 mmHg 79%
    16:00 +13°C° 0.1 mm 4 mps 762 mmHg 83%
    17:00 +12°C° 0.1 mm 5 mps 762 mmHg 87%
    18:00 +12°C° 1.4 mm 5 mps 761 mmHg 89%
    19:00 +11°C° 1.4 mm 6 mps 761 mmHg 90%
    20:00 +11°C° 1.4 mm 7 mps 760 mmHg 92%
    21:00 +11°C° 1.2 mm 7 mps 759 mmHg 93%
    22:00 +12°C° 1.2 mm 7 mps 758 mmHg 93%
    23:00 +12°C° 1.2 mm 8 mps 758 mmHg 94%

    Day after tomorrow, 13 December, Thursday

    Time Temperature Precipitation Wind Pressure Humidity
    00:00 +12°C° 1.1 mm 9 mps 758 mmHg 90%
    01:00 +11°C° 1.1 mm 10 mps 758 mmHg 87%
    02:00 +9°C° 1.1 mm 11 mps 758 mmHg 83%
    03:00 +9°C° 0.5 mm 10 mps 758 mmHg 83%
    04:00 +8°C° 0.5 mm 9 mps 759 mmHg 82%
    05:00 +7°C° 0.5 mm 8 mps 760 mmHg 82%
    06:00 +7°C° 0.2 mm 8 mps 760 mmHg 83%
    07:00 +8°C° 0.2 mm 7 mps 761 mmHg 84%
    08:00 +8°C° 0.2 mm 6 mps 761 mmHg 84%
    09:00 +9°C° 0.4 mm 7 mps 762 mmHg 80%
    10:00 +10°C° 0.4 mm 7 mps 762 mmHg 76%
    11:00 +11°C° 0.4 mm 8 mps 763 mmHg 72%
    12:00 +10°C° 0.3 mm 8 mps 763 mmHg 72%
    13:00 +10°C° 0.3 mm 8 mps 763 mmHg 71%
    14:00 +10°C° 0.3 mm 8 mps 763 mmHg 71%
    15:00 +10°C° 0.1 mm 7 mps 763 mmHg 75%
    16:00 +9°C° 0.1 mm 7 mps 764 mmHg 78%
    17:00 +8°C° 0.1 mm 6 mps 764 mmHg 82%
    18:00 +8°C° 0.1 mm 5 mps 764 mmHg 84%
    19:00 +7°C° 0.1 mm 5 mps 765 mmHg 86%
    20:00 +7°C° 0.1 mm 4 mps 765 mmHg 88%
    21:00 +7°C° 0.1 mm 4 mps 765 mmHg 89%
    22:00 +7°C° 0.1 mm 4 mps 766 mmHg 89%
    23:00 +8°C° 0.1 mm 3 mps 766 mmHg 90%

    14 December, Friday

    Time Temperature Precipitation Wind Pressure Humidity
    00:00 +8°C° 0 mm 3 mps 766 mmHg 90%
    01:00 +8°C° 0 mm 3 mps 766 mmHg 89%
    02:00 +8°C° 0 mm 3 mps 767 mmHg 89%
    03:00 +8°C° 0 mm 3 mps 767 mmHg 89%
    04:00 +8°C° 0 mm 2 mps 767 mmHg 88%
    05:00 +8°C° 0 mm 2 mps 767 mmHg 88%
    06:00 +9°C° 0 mm 2 mps 767 mmHg 87%
    07:00 +10°C° 0 mm 1 mps 768 mmHg 86%
    08:00 +10°C° 0 mm 1 mps 768 mmHg 86%
    09:00 +12°C° 0 mm 1 mps 768 mmHg 80%
    10:00 +13°C° 0 mm 1 mps 768 mmHg 75%
    11:00 +14°C° 0 mm 2 mps 768 mmHg 70%
    12:00 +14°C° 0 mm 2 mps 768 mmHg 71%
    13:00 +15°C° 0 mm 2 mps 768 mmHg 71%
    14:00 +15°C° 0 mm 2 mps 768 mmHg 72%
    15:00 +13°C° 0 mm 2 mps 769 mmHg 77%
    16:00 +12°C° 0 mm 2 mps 769 mmHg 83%
    17:00 +10°C° 0 mm 2 mps 769 mmHg 88%
    18:00 +10°C° 0 mm 3 mps 769 mmHg 88%
    19:00 +10°C° 0 mm 3 mps 769 mmHg 89%
    20:00 +9°C° 0 mm 3 mps 769 mmHg 89%
    21:00 +10°C° 0 mm 3 mps 769 mmHg 88%
    22:00 +10°C° 0 mm 4 mps 769 mmHg 87%
    23:00 +11°C° 0 mm 4 mps 769 mmHg 86%

    15 December, Saturday

    Time Temperature Precipitation Wind Pressure Humidity
    00:00 +11°C° 0.1 mm 4 mps 769 mmHg 87%
    01:00 +11°C° 0.1 mm 4 mps 769 mmHg 87%
    02:00 +11°C° 0.1 mm 4 mps 769 mmHg 88%
    03:00 +11°C° 0.1 mm 4 mps 769 mmHg 88%
    04:00 +10°C° 0.1 mm 5 mps 769 mmHg 89%
    05:00 +10°C° 0.1 mm 5 mps 769 mmHg 89%
    06:00 +12°C° 0 mm 5 mps 769 mmHg 89%
    07:00 +12°C° 0 mm 5 mps 769 mmHg 88%
    08:00 +12°C° 0 mm 5 mps 770 mmHg 88%
    09:00 +13°C° 0 mm 5 mps 769 mmHg 84%
    10:00 +15°C° 0 mm 5 mps 769 mmHg 80%
    11:00 +16°C° 0 mm 5 mps 769 mmHg 76%
    12:00 +16°C° 0 mm 5 mps 769 mmHg 75%
    13:00 +16°C° 0 mm 5 mps 768 mmHg 75%
    14:00 +16°C° 0 mm 5 mps 768 mmHg 75%
    15:00 +15°C° 0 mm 5 mps 768 mmHg 79%
    16:00 +14°C° 0 mm 5 mps 768 mmHg 83%
    17:00 +13°C° 0 mm 4 mps 768 mmHg 88%
    18:00 +13°C° 0 mm 4 mps 768 mmHg 88%
    19:00 +13°C° 0 mm 5 mps 768 mmHg 89%
    20:00 +13°C° 0 mm 5 mps 768 mmHg 89%
    21:00 +12°C° 0 mm 5 mps 768 mmHg 90%
    22:00 +12°C° 0 mm 5 mps 768 mmHg 90%
    23:00 +10°C° 0 mm 5 mps 768 mmHg 91%

    16 December, Sunday

    Time Temperature Precipitation Wind Pressure Humidity
    00:00 +10°C° 0 mm 5 mps 767 mmHg 91%
    01:00 +10°C° 0 mm 5 mps 767 mmHg 90%
    02:00 +10°C° 0 mm 5 mps 767 mmHg 90%
    03:00 +10°C° 0.4 mm 6 mps 766 mmHg 89%
    04:00 +10°C° 0.4 mm 6 mps 766 mmHg 89%
    05:00 +10°C° 0.4 mm 7 mps 766 mmHg 88%
    06:00 +11°C° 2 mm 6 mps 766 mmHg 89%
    07:00 +11°C° 2 mm 6 mps 767 mmHg 89%
    08:00 +12°C° 2 mm 5 mps 767 mmHg 90%
    09:00 +13°C° 1 mm 4 mps 767 mmHg 92%
    10:00 +13°C° 1 mm 3 mps 767 mmHg 94%
    11:00 +14°C° 1 mm 2 mps 768 mmHg 96%
    12:00 +14°C° 0.6 mm 2 mps 767 mmHg 95%
    13:00 +15°C° 0.6 mm 2 mps 767 mmHg 95%
    14:00 +15°C° 0.6 mm 1 mps 767 mmHg 94%
    15:00 +15°C° 0.4 mm 1 mps 767 mmHg 95%
    16:00 +14°C° 0.4 mm 1 mps 767 mmHg 95%
    17:00 +14°C° 0.4 mm 2 mps 767 mmHg 96%
    18:00 +14°C° 1.8 mm 2 mps 767 mmHg 96%
    19:00 +14°C° 1.8 mm 2 mps 767 mmHg 95%
    20:00 +14°C° 1.8 mm 2 mps 767 mmHg 95%
    21:00 +14°C° 1.2 mm 2 mps 767 mmHg 95%
    22:00 +13°C° 1.2 mm 3 mps 767 mmHg 95%
    23:00 +13°C° 1.2 mm 3 mps 766 mmHg 95%
    Show more